Location: Stone Trail Observatory
(44.2408°N, 105.6081°W)
Time: 01:25:01
(UTC-06:00)

Iridium 6 - Visible Passes

Search period start: 31 July 2016 00:00
Search period end: 10 August 2016 00:00
Orbit: 776 x 779 km, 86.4° (Epoch: 31 July)

Date Brightness Start Highest point End Pass type
(mag) Time Alt. Az. Time Alt. Az. Time Alt. Az.
31 Jul 6.1 21:33:59 10° N 21:38:54 40° E 21:42:42 16° SE visible
31 Jul 7.4 23:15:09 10° NNW 23:19:23 26° W 23:23:11 12° SW visible
01 Aug 6.8 21:01:01 10° NNE 21:05:08 23° ENE 21:09:13 10° SE visible
01 Aug 6.5 22:41:07 10° NNW 22:46:05 45° W 22:49:58 16° SSW visible
02 Aug 5.6 22:07:24 10° N 22:12:39 81° W 22:16:45 17° S visible
03 Aug 5.7 21:33:56 10° N 21:39:05 57° E 21:43:34 14° SSE visible
03 Aug 7.9 23:15:49 10° NW 23:19:19 18° WNW 23:22:47 10° WSW visible
04 Aug 6.4 21:00:44 10° NNE 21:05:24 32° ENE 21:10:02 10° SE visible
04 Aug 7.1 22:41:29 10° NNW 22:46:04 32° W 22:50:38 10° SW visible
05 Aug 6.1 22:07:35 10° N 22:12:42 57° W 22:17:44 10° SSW visible
06 Aug 5.5 21:33:58 10° N 21:39:14 81° E 21:44:27 10° S visible
06 Aug 8.2 23:16:56 10° NW 23:19:10 13° WNW 23:21:26 10° W visible
07 Aug 5.9 21:00:36 10° N 21:05:37 45° E 21:10:36 10° SSE visible
07 Aug 7.7 22:42:01 10° NNW 22:46:01 23° W 22:50:01 10° SW visible
08 Aug 6.8 22:07:52 10° NNW 22:12:43 40° W 22:17:33 10° SSW visible
09 Aug 5.8 21:34:06 10° N 21:39:19 72° W 21:44:30 10° S visible
